Location: Atherton
(17.2661°S, 145.4859°E)
Time: 18:21:38
(UTC+10:00)

ACS3 Solar Sail - Pass Details

Date: 27 May 2025
Orbit: 920 x 1019 km, 97.5° (Epoch: 20 June)

Event Time Altitude Azimuth Distance (km) Brightness Sun altitude
Rises 18:05:16 0° 177° (S) 3,778 4.6 -4.0°
Reaches altitude 10° 18:07:50 10° 181° (S) 2,825 4.0 -4.5°
Maximum altitude 18:14:03 55° 256° (WSW) 1,215 2.7 -5.9°
Drops below altitude 10° 18:20:11 10° 332° (NNW) 2,782 5.0 -7.3°
Sets 18:22:42 0° 337° (NNW) 3,717 5.5 -7.9°
